Regional Weather Roundup
Issued by NWS

Home | Current Version | Previous Version | Graphics & Text | Print | Product List | Glossary On
Versions: 1 2 3 4 5 6 7 8 9 10 11 12 13 14 15 16 17 18 19 20 21 22 23 24 25 26 27 28 29 30 31 32 33 34 35 36 37 38 39 40 41 42 43 44 45 46 47 48 49 50
295
ASUS43 KOAX 270310
RWRNE

WEATHER ROUNDUP FOR NEBRASKA
NATIONAL WEATHER SERVICE OMAHA NE
1000 PM CDT WED APR 26 2017

NOTES: SATELLITE DATA IS BEING USED TO AUGMENT CLOUD COVER ABOVE
       12000 FEET.
       "FAIR" INDICATES FEW OR NO CLOUDS BELOW 12,000 FEET WITH NO
       SIGNIFICANT WEATHER AND/OR OBSTRUCTIONS TO VISIBILITY.

  * THESE STATIONS DO NOT REPORT WEATHER SUCH AS RAIN...SNOW OR FOG.

NEZ001>004-019>022-054>056-270400-
NEBRASKA PANHANDLE

CITY           SKY/WX    TMP DP  RH WIND       PRES   REMARKS
SCOTTSBLUFF    LGT RAIN  46  39  76 SE7       29.70R
ALLIANCE       CLOUDY    38  31  76 E8        29.70R WCI  32
CHADRON        CLEAR     35  30  82 NE6       29.73R WCI  30
KIMBALL        CLOUDY    43  40  89 NE7       29.72R
SIDNEY         MOCLDY    40  38  93 NE8       29.72R WCI  34
$$

NEZ057>060-069>072-079>082-270400-
SOUTHWEST NEBRASKA

CITY           SKY/WX    TMP DP  RH WIND       PRES   REMARKS
NORTH PLATTE   CLEAR     36  29  75 CALM      29.72R
IMPERIAL       MOCLDY    43  31  62 E7        29.70R
LEXINGTON      CLEAR     37  29  75 N6        29.71R WCI  32
MCCOOK         CLEAR     40  28  62 E3        29.71R
OGALLALA       CLOUDY    46  34  64 CALM      29.73R
$$

NEZ005>010-023>029-035>040-094-270400-
NORTH CENTRAL NEBRASKA

CITY           SKY/WX    TMP DP  RH WIND       PRES   REMARKS
VALENTINE      CLEAR     32  25  75 W8        29.72R WCI  25
AINSWORTH      CLEAR     33  29  86 W7        29.71R WCI  27
BROKEN BOW     CLEAR     32  26  78 N8        29.71R WCI  25
O`NEILL        CLEAR     35  28  78 N7        29.70R WCI  29
ORD            CLEAR     33  27  78 NW7       29.70R WCI  27
THEDFORD       CLEAR     33  28  82 N5        29.73R WCI  29
$$

NEZ041-046>049-061>064-073>077-083>087-270400-
SOUTH CENTRAL NEBRASKA

CITY           SKY/WX    TMP DP  RH WIND       PRES   REMARKS
GRAND ISLAND   PTCLDY    33  28  81 N5        29.73R WCI  29
AURORA         CLOUDY    40  29  64 N9        29.72R WCI  35
HASTINGS       CLEAR     35  28  75 NE5       29.74R WCI  31
HEBRON         PTCLDY    41  31  67 N5        29.73R
HOLDREGE       CLEAR     36  28  72 N6        29.72R WCI  31
KEARNEY *      CLEAR     36  27  69 N3        29.73R
YORK           CLOUDY    41  30  65 N10       29.72R
$$

NEZ011>018-030>034-042>045-270400-
NORTHEAST NEBRASKA

CITY           SKY/WX    TMP DP  RH WIND       PRES   REMARKS
NORFOLK        CLOUDY    38  30  73 N8        29.70R WCI  32
ALBION         CLEAR     33  28  82 CALM      29.70R
BLAIR          CLOUDY    40  32  74 NW14      29.69R WCI  32
FREMONT        CLOUDY    40  32  73 NW10      29.71R WCI  33
TEKAMAH        CLOUDY    40  31  70 NW12      29.70R WCI  33
WAYNE          CLOUDY    37  32  80 N10       29.70R WCI  30
$$

NEZ050>053-065>068-078-088>093-270400-
SOUTHEAST NEBRASKA

CITY           SKY/WX    TMP DP  RH WIND       PRES   REMARKS
LINCOLN        CLOUDY    44  32  62 N8        29.73R
OMAHA EPPLEY   CLOUDY    42  31  64 NW13      29.69R
BEATRICE       CLOUDY    44  34  68 N8        29.71R
FALLS CITY     CLOUDY    43  33  68 NW14G21   29.69R
NEBRASKA CITY  CLOUDY    42  29  61 NW14      29.70R
PLATTSMOUTH    CLOUDY    41  30  64 NW15G21   29.70R
$$

NEZ044-045-051>053-067-270400-
OMAHA AREA

CITY           SKY/WX    TMP DP  RH WIND       PRES   REMARKS
OMAHA EPPLEY   CLOUDY    42  31  64 NW13      29.69R
BLAIR          CLOUDY    40  32  74 NW14      29.69R WCI  32
FREMONT        CLOUDY    40  32  73 NW10      29.71R WCI  33
MILLARD        CLOUDY    43  33  68 NW8G22    29.71R
OFFUTT AFB     CLOUDY    41  31  67 NW12      29.70R
PLATTSMOUTH    CLOUDY    41  30  64 NW15G21   29.70R
WAHOO          CLOUDY    41  32  70 NW9       29.71R
$$




USA.gov is the U.S. government's official web portal to all federal, state and local government web resources and services.